UAL1791 KLAX-KSFO

Flight info

Callsign UAL1791
Flight time 0h 54m
Altitude 36000
Route SUMMR2 STOKD SERFR SERFR4
Aircraft B739/M-SDE2E3FGHIRWXY/LB1

Departure

Time 2026-04-25 14:35
Airport Los Angeles International Airport (KLAX)

Arrival

Time 2026-04-25 15:30
Airport San Francisco International Airport (KSFO)
Time Latitude Longitude Altitude Speed Heading
2026-04-25 13:39 33.94117 -118.40027 94 ft 0 kts 95°
2026-04-25 14:20 33.94119 -118.40050 94 ft 4 kts 96°
2026-04-25 14:21 33.94122 -118.40072 94 ft 4 kts 129°
2026-04-25 14:21 33.94141 -118.40083 94 ft 3 kts 173°
2026-04-25 14:21 33.94161 -118.40086 93 ft 0 kts 172°
2026-04-25 14:27 33.94160 -118.40086 94 ft 1 kts 172°
2026-04-25 14:27 33.94152 -118.40084 96 ft 1 kts 172°
2026-04-25 14:28 33.94143 -118.40083 97 ft 1 kts 172°
2026-04-25 14:28 33.94131 -118.40081 94 ft 1 kts 172°
2026-04-25 14:28 33.94118 -118.40079 95 ft 3 kts 172°
2026-04-25 14:28 33.94086 -118.40074 97 ft 6 kts 173°
2026-04-25 14:29 33.94034 -118.40067 95 ft 8 kts 173°
2026-04-25 14:29 33.93996 -118.40062 97 ft 8 kts 173°
2026-04-25 14:29 33.93941 -118.40053 100 ft 8 kts 173°
2026-04-25 14:29 33.93894 -118.40024 102 ft 8 kts 131°
2026-04-25 14:30 33.93882 -118.39975 103 ft 12 kts 90°
2026-04-25 14:30 33.93918 -118.39609 102 ft 19 kts 83°
2026-04-25 14:30 33.93930 -118.39496 102 ft 21 kts 82°
2026-04-25 14:31 33.93948 -118.39311 100 ft 23 kts 83°
2026-04-25 14:31 33.93968 -118.39124 101 ft 22 kts 83°
2026-04-25 14:31 33.93986 -118.38943 101 ft 22 kts 82°
2026-04-25 14:31 33.94004 -118.38766 101 ft 21 kts 83°
2026-04-25 14:32 33.94022 -118.38596 102 ft 20 kts 82°
2026-04-25 14:32 33.94038 -118.38433 102 ft 19 kts 83°
2026-04-25 14:32 33.94054 -118.38285 102 ft 17 kts 83°
2026-04-25 14:32 33.94068 -118.38146 102 ft 15 kts 83°
2026-04-25 14:33 33.94077 -118.38056 102 ft 6 kts 83°
2026-04-25 14:33 33.94071 -118.38017 103 ft 2 kts 121°
2026-04-25 14:33 33.94061 -118.38007 103 ft 2 kts 145°
2026-04-25 14:33 33.94042 -118.37999 106 ft 3 kts 167°
2026-04-25 14:34 33.94016 -118.37996 108 ft 4 kts 175°
2026-04-25 14:34 33.93990 -118.38000 108 ft 4 kts 215°
2026-04-25 14:34 33.93984 -118.38037 109 ft 9 kts 264°
2026-04-25 14:34 33.93949 -118.38377 109 ft 82 kts 262°
2026-04-25 14:35 33.93848 -118.39358 106 ft 151 kts 262°
2026-04-25 14:35 33.93708 -118.40758 372 ft 184 kts 262°
2026-04-25 14:35 33.93565 -118.42318 1181 ft 192 kts 262°
2026-04-25 14:35 33.93418 -118.43928 2059 ft 194 kts 262°
2026-04-25 14:36 33.93240 -118.45632 2385 ft 221 kts 261°
2026-04-25 14:36 33.93047 -118.47550 2807 ft 237 kts 262°
2026-04-25 14:36 33.92874 -118.49552 3487 ft 243 kts 263°
2026-04-25 14:36 33.92707 -118.51567 4317 ft 242 kts 263°
2026-04-25 14:37 33.92537 -118.53634 4885 ft 257 kts 264°
2026-04-25 14:37 33.92358 -118.55806 5713 ft 261 kts 264°
2026-04-25 14:37 33.92179 -118.57967 6781 ft 258 kts 264°
2026-04-25 14:37 33.92001 -118.60118 7684 ft 260 kts 264°
2026-04-25 14:38 33.91820 -118.62295 8588 ft 262 kts 264°
2026-04-25 14:38 33.91722 -118.64482 9517 ft 263 kts 268°
2026-04-25 14:38 33.91716 -118.66443 10271 ft 266 kts 269°
2026-04-25 14:38 33.91723 -118.68756 10586 ft 289 kts 269°
2026-04-25 14:39 33.91729 -118.71274 10835 ft 311 kts 269°
2026-04-25 14:39 33.91729 -118.73919 11445 ft 319 kts 268°
2026-04-25 14:39 33.91725 -118.76592 11896 ft 320 kts 268°
2026-04-25 14:39 33.91715 -118.79280 12072 ft 325 kts 268°
2026-04-25 14:40 33.91702 -118.82006 12814 ft 326 kts 268°
2026-04-25 14:40 33.91708 -118.84729 13729 ft 325 kts 269°
2026-04-25 14:40 33.91784 -118.87407 14434 ft 328 kts 270°
2026-04-25 14:40 33.91883 -118.90153 15053 ft 333 kts 270°
2026-04-25 14:41 33.91978 -118.92925 15696 ft 337 kts 270°
2026-04-25 14:41 33.92066 -118.95761 16356 ft 341 kts 269°
2026-04-25 14:41 33.92151 -118.98630 16992 ft 345 kts 269°
2026-04-25 14:41 33.92463 -119.01510 17595 ft 353 kts 282°
2026-04-25 14:42 33.93467 -119.04253 18232 ft 364 kts 296°
2026-04-25 14:42 33.94346 -119.05977 18596 ft 367 kts 297°
2026-04-25 14:42 33.96212 -119.09455 19361 ft 372 kts 298°
2026-04-25 14:42 33.97611 -119.12085 19932 ft 374 kts 297°
2026-04-25 14:43 33.98981 -119.14715 20491 ft 377 kts 296°
2026-04-25 14:43 34.00382 -119.17406 21045 ft 381 kts 299°
2026-04-25 14:43 34.02194 -119.19802 21540 ft 397 kts 316°
2026-04-25 14:43 34.04439 -119.21784 22096 ft 402 kts 319°
2026-04-25 14:44 34.06744 -119.23724 22611 ft 406 kts 319°
2026-04-25 14:44 34.09085 -119.25679 23120 ft 410 kts 319°
2026-04-25 14:44 34.11437 -119.27655 23608 ft 413 kts 319°
2026-04-25 14:44 34.13794 -119.29655 24052 ft 416 kts 319°
2026-04-25 14:45 34.16159 -119.31677 24513 ft 418 kts 319°
2026-04-25 14:45 34.18502 -119.33690 24974 ft 420 kts 319°
2026-04-25 14:45 34.20886 -119.35745 25417 ft 422 kts 319°
2026-04-25 14:45 34.23284 -119.37816 25850 ft 425 kts 319°
2026-04-25 14:46 34.25696 -119.39900 26273 ft 427 kts 319°
2026-04-25 14:46 34.28122 -119.41998 26692 ft 430 kts 319°
2026-04-25 14:46 34.30564 -119.44111 27111 ft 432 kts 319°
2026-04-25 14:46 34.32830 -119.46072 27492 ft 435 kts 319°
2026-04-25 14:47 34.35263 -119.48179 27887 ft 437 kts 319°
2026-04-25 14:47 34.36933 -119.49626 28153 ft 439 kts 319°
2026-04-25 14:47 34.40169 -119.52433 28674 ft 442 kts 319°
2026-04-25 14:47 34.42568 -119.54755 29029 ft 441 kts 312°
2026-04-25 14:48 34.44762 -119.57349 29409 ft 441 kts 310°
2026-04-25 14:48 34.46892 -119.60034 29801 ft 443 kts 309°
2026-04-25 14:48 34.49010 -119.62747 30230 ft 443 kts 309°
2026-04-25 14:48 34.51124 -119.65441 30742 ft 439 kts 309°
2026-04-25 14:49 34.53237 -119.68104 31274 ft 436 kts 309°
2026-04-25 14:49 34.55341 -119.70731 31758 ft 434 kts 309°
2026-04-25 14:49 34.57447 -119.73344 32197 ft 432 kts 309°
2026-04-25 14:49 34.59522 -119.75910 32643 ft 431 kts 309°
2026-04-25 14:50 34.61615 -119.78494 33101 ft 427 kts 309°
2026-04-25 14:50 34.63694 -119.81062 33542 ft 425 kts 309°
2026-04-25 14:50 34.65765 -119.83623 33963 ft 424 kts 309°
2026-04-25 14:50 34.67829 -119.86178 34325 ft 423 kts 308°
2026-04-25 14:51 34.69880 -119.88721 34648 ft 422 kts 308°
2026-04-25 14:51 34.71938 -119.91273 34941 ft 422 kts 308°
2026-04-25 14:51 34.73966 -119.93791 35221 ft 422 kts 308°
2026-04-25 14:51 34.76016 -119.96337 35526 ft 421 kts 308°
2026-04-25 14:52 34.78062 -119.98880 35805 ft 420 kts 307°
2026-04-25 14:52 34.80107 -120.01424 36000 ft 422 kts 307°
2026-04-25 14:52 34.83524 -120.05683 35982 ft 423 kts 307°
2026-04-25 14:53 34.88305 -120.11641 35985 ft 419 kts 307°
2026-04-25 14:53 34.92359 -120.16705 35972 ft 416 kts 307°
2026-04-25 14:54 34.96394 -120.21754 35998 ft 415 kts 307°
2026-04-25 14:54 35.00397 -120.26771 35990 ft 416 kts 307°
2026-04-25 14:55 35.04435 -120.31840 35999 ft 417 kts 307°
2026-04-25 14:55 35.08486 -120.36930 35999 ft 419 kts 307°
2026-04-25 14:56 35.12732 -120.41866 35989 ft 424 kts 310°
2026-04-25 14:56 35.17124 -120.46704 35979 ft 425 kts 310°
2026-04-25 14:57 35.21499 -120.51558 35999 ft 425 kts 310°
2026-04-25 14:57 35.25773 -120.56350 35998 ft 425 kts 310°
2026-04-25 14:58 35.30140 -120.61268 35989 ft 427 kts 310°
2026-04-25 14:58 35.34518 -120.66207 35985 ft 428 kts 310°
2026-04-25 14:59 35.38894 -120.71148 35991 ft 428 kts 310°
2026-04-25 14:59 35.43239 -120.76063 35979 ft 427 kts 310°
2026-04-25 15:00 35.47595 -120.80996 36011 ft 425 kts 310°
2026-04-25 15:00 35.52187 -120.85638 36008 ft 430 kts 315°
2026-04-25 15:01 35.57004 -120.89993 36014 ft 430 kts 316°
2026-04-25 15:01 35.61790 -120.94343 35998 ft 428 kts 315°
2026-04-25 15:02 35.66515 -120.98712 36004 ft 427 kts 315°
2026-04-25 15:02 35.71244 -121.03118 35984 ft 423 kts 315°
2026-04-25 15:03 35.75889 -121.07454 35981 ft 417 kts 315°
2026-04-25 15:03 35.80477 -121.11751 35630 ft 419 kts 315°
2026-04-25 15:04 35.82787 -121.13915 35228 ft 416 kts 315°
2026-04-25 15:04 35.85081 -121.16063 34756 ft 412 kts 315°
2026-04-25 15:04 35.87353 -121.18191 34307 ft 408 kts 315°
2026-04-25 15:04 35.89606 -121.20304 33828 ft 405 kts 315°
2026-04-25 15:05 35.91841 -121.22403 33305 ft 402 kts 316°
2026-04-25 15:05 35.94058 -121.24488 32826 ft 399 kts 316°
2026-04-25 15:05 35.96256 -121.26556 32352 ft 396 kts 316°
2026-04-25 15:06 36.00578 -121.30627 31454 ft 390 kts 317°
2026-04-25 15:06 36.02729 -121.32654 31012 ft 388 kts 317°
2026-04-25 15:06 36.04866 -121.34670 30571 ft 385 kts 317°
2026-04-25 15:06 36.06995 -121.36669 30143 ft 384 kts 319°
2026-04-25 15:07 36.09212 -121.38542 29497 ft 388 kts 322°
2026-04-25 15:07 36.11485 -121.40304 29031 ft 385 kts 323°
2026-04-25 15:07 36.13735 -121.42005 28578 ft 383 kts 323°
2026-04-25 15:07 36.16001 -121.43720 28128 ft 380 kts 323°
2026-04-25 15:08 36.18241 -121.45431 27714 ft 376 kts 323°
2026-04-25 15:08 36.20447 -121.47130 27311 ft 372 kts 323°
2026-04-25 15:08 36.22630 -121.48824 26888 ft 370 kts 322°
2026-04-25 15:08 36.24802 -121.50516 26472 ft 367 kts 322°
2026-04-25 15:09 36.26957 -121.52200 26064 ft 365 kts 322°
2026-04-25 15:09 36.29104 -121.53879 25661 ft 363 kts 322°
2026-04-25 15:09 36.33321 -121.57181 24862 ft 359 kts 322°
2026-04-25 15:10 36.35424 -121.58830 24466 ft 357 kts 322°
2026-04-25 15:10 36.37522 -121.60476 24061 ft 356 kts 322°
2026-04-25 15:10 36.41691 -121.63750 23211 ft 354 kts 322°
2026-04-25 15:11 36.43759 -121.65374 22779 ft 351 kts 323°
2026-04-25 15:11 36.45815 -121.66990 22371 ft 348 kts 323°
2026-04-25 15:11 36.47827 -121.68572 21993 ft 346 kts 323°
2026-04-25 15:12 36.51855 -121.71746 21263 ft 339 kts 323°
2026-04-25 15:12 36.53838 -121.73311 20891 ft 337 kts 324°
2026-04-25 15:12 36.55806 -121.74868 20514 ft 334 kts 324°
2026-04-25 15:12 36.57102 -121.75893 20269 ft 332 kts 324°
2026-04-25 15:13 36.59700 -121.77951 19783 ft 330 kts 325°
2026-04-25 15:13 36.63548 -121.81000 19057 ft 326 kts 326°
2026-04-25 15:13 36.65432 -121.82495 18690 ft 324 kts 326°
2026-04-25 15:14 36.67331 -121.84002 18327 ft 323 kts 326°
2026-04-25 15:14 36.69220 -121.85501 17915 ft 321 kts 326°
2026-04-25 15:14 36.71103 -121.86996 17515 ft 319 kts 326°
2026-04-25 15:14 36.72969 -121.88479 17147 ft 317 kts 326°
2026-04-25 15:15 36.74912 -121.89710 16858 ft 312 kts 343°
2026-04-25 15:15 36.76994 -121.90336 16614 ft 306 kts 347°
2026-04-25 15:15 36.79062 -121.90878 16296 ft 303 kts 347°
2026-04-25 15:15 36.81089 -121.91407 15954 ft 301 kts 347°
2026-04-25 15:16 36.83128 -121.91951 15613 ft 298 kts 347°
2026-04-25 15:16 36.85150 -121.92500 15278 ft 296 kts 347°
2026-04-25 15:16 36.89157 -121.93609 14609 ft 293 kts 347°
2026-04-25 15:17 36.93116 -121.94716 13943 ft 291 kts 347°
2026-04-25 15:17 36.95062 -121.95263 13589 ft 290 kts 346°
2026-04-25 15:17 36.96999 -121.95932 13222 ft 288 kts 343°
2026-04-25 15:18 36.98905 -121.96679 12879 ft 286 kts 342°
2026-04-25 15:18 37.02680 -121.98190 12192 ft 283 kts 342°
2026-04-25 15:18 37.04553 -121.98934 11870 ft 282 kts 342°
2026-04-25 15:19 37.06418 -121.99670 11541 ft 280 kts 342°
2026-04-25 15:19 37.07646 -122.00153 11329 ft 279 kts 342°
2026-04-25 15:19 37.10098 -122.01116 10898 ft 278 kts 342°
2026-04-25 15:19 37.11937 -122.01836 10563 ft 277 kts 342°
2026-04-25 15:20 37.13779 -122.02558 10249 ft 276 kts 342°
2026-04-25 15:20 37.15592 -122.03268 10085 ft 269 kts 342°
2026-04-25 15:20 37.17380 -122.03968 9772 ft 271 kts 342°
2026-04-25 15:20 37.19196 -122.04680 9457 ft 276 kts 342°
2026-04-25 15:21 37.21047 -122.05405 9125 ft 280 kts 342°
2026-04-25 15:21 37.22898 -122.06131 8786 ft 278 kts 342°
2026-04-25 15:21 37.24697 -122.06837 8470 ft 277 kts 342°
2026-04-25 15:21 37.26531 -122.07556 8151 ft 276 kts 342°
2026-04-25 15:22 37.28360 -122.08275 7801 ft 275 kts 341°
2026-04-25 15:22 37.30189 -122.08995 7433 ft 276 kts 341°
2026-04-25 15:22 37.32045 -122.09726 7006 ft 280 kts 342°
2026-04-25 15:22 37.33900 -122.10458 6658 ft 280 kts 342°
2026-04-25 15:23 37.35742 -122.11183 6320 ft 279 kts 342°
2026-04-25 15:23 37.37474 -122.11866 6000 ft 277 kts 341°
2026-04-25 15:23 37.39299 -122.12524 5657 ft 276 kts 343°
2026-04-25 15:23 37.41154 -122.13150 5318 ft 275 kts 343°
2026-04-25 15:24 37.42920 -122.13745 4990 ft 268 kts 343°
2026-04-25 15:24 37.44691 -122.14346 4647 ft 259 kts 343°
2026-04-25 15:24 37.46401 -122.14930 4307 ft 251 kts 343°
2026-04-25 15:24 37.47508 -122.15310 4114 ft 246 kts 342°
2026-04-25 15:25 37.49661 -122.16049 3726 ft 235 kts 342°
2026-04-25 15:25 37.51128 -122.16552 3492 ft 224 kts 342°
2026-04-25 15:25 37.52560 -122.17110 3204 ft 214 kts 330°
2026-04-25 15:25 37.53557 -122.18358 3027 ft 196 kts 301°
2026-04-25 15:26 37.54310 -122.19721 2800 ft 188 kts 304°
2026-04-25 15:26 37.55005 -122.21059 2564 ft 178 kts 297°
2026-04-25 15:26 37.55578 -122.22403 2337 ft 169 kts 295°
2026-04-25 15:26 37.56107 -122.23676 2130 ft 160 kts 295°
2026-04-25 15:27 37.56612 -122.24894 1923 ft 155 kts 295°
2026-04-25 15:27 37.57114 -122.26100 1734 ft 155 kts 295°
2026-04-25 15:27 37.58057 -122.28365 1344 ft 143 kts 296°
2026-04-25 15:28 37.58518 -122.29473 1142 ft 144 kts 295°
2026-04-25 15:28 37.58987 -122.30597 951 ft 144 kts 296°
2026-04-25 15:28 37.59445 -122.31694 750 ft 140 kts 296°
2026-04-25 15:28 37.59895 -122.32777 591 ft 141 kts 296°
2026-04-25 15:29 37.60358 -122.33868 408 ft 140 kts 296°
2026-04-25 15:29 37.60798 -122.34948 229 ft 137 kts 297°
2026-04-25 15:29 37.61238 -122.35998 51 ft 137 kts 297°
2026-04-25 15:29 37.61646 -122.36968 21 ft 101 kts 298°
2026-04-25 15:30 37.61882 -122.37533 21 ft 57 kts 298°
2026-04-25 15:30 37.61993 -122.37795 21 ft 20 kts 294°
2026-04-25 15:30 37.61975 -122.37922 22 ft 9 kts 228°
2026-04-25 15:30 37.61938 -122.37974 21 ft 8 kts 228°
2026-04-25 15:31 37.61911 -122.38030 21 ft 7 kts 251°
2026-04-25 15:31 37.61918 -122.38088 23 ft 7 kts 297°
2026-04-25 15:31 37.61936 -122.38130 21 ft 4 kts 297°
2026-04-25 15:31 37.61944 -122.38150 21 ft 1 kts 297°
2026-04-25 15:32 37.61947 -122.38158 21 ft 1 kts 297°
2026-04-25 15:32 37.61950 -122.38165 21 ft 1 kts 293°
2026-04-25 15:32 37.61947 -122.38187 21 ft 3 kts 238°
2026-04-25 15:33 37.61904 -122.38182 21 ft 4 kts 165°
2026-04-25 15:33 37.61880 -122.38174 21 ft 3 kts 165°
2026-04-25 15:33 37.61868 -122.38171 21 ft 1 kts 166°
2026-04-25 15:33 37.61860 -122.38168 21 ft 1 kts 166°
2026-04-25 15:34 37.61858 -122.38168 21 ft 0 kts 166°